Time,TemperatureF,DewpointF,PressureIn,WindDirection,WindDirectionDegrees,WindSpeedMPH,WindSpeedGustMPH,Humidity,HourlyPrecipIn,Conditions,Clouds,dailyrainin,SoftwareType,DateUTC
2013-03-21 00:00:00,57.4,44.5,30.04,ENE,70,0.0,4.0,62,0.00,,,0.00,Wunderground v.1.15,2013-03-21 05:00:00,
2013-03-21 00:10:00,57.1,44.2,30.04,ENE,71,0.0,4.0,62,0.00,,,0.00,Wunderground v.1.15,2013-03-21 05:10:00,
2013-03-21 00:20:00,57.4,44.1,30.03,ENE,71,0.0,4.0,61,0.00,,,0.00,Wunderground v.1.15,2013-03-21 05:20:00,
2013-03-21 00:30:00,57.5,44.1,30.03,ENE,71,0.0,4.0,61,0.00,,,0.00,Wunderground v.1.15,2013-03-21 05:30:00,
2013-03-21 00:39:00,57.7,44.3,30.03,SSE,158,0.0,4.0,61,0.00,,,0.00,Wunderground v.1.15,2013-03-21 05:39:00,
2013-03-21 00:45:00,58.1,43.8,30.03,SSE,158,0.0,4.0,59,0.00,,,0.00,Wunderground v.1.15,2013-03-21 05:45:00,
2013-03-21 00:55:00,58.5,43.8,30.03,SE,132,0.0,4.0,58,0.00,,,0.00,Wunderground v.1.15,2013-03-21 05:55:00,
2013-03-21 01:04:00,58.8,43.6,30.03,SE,142,0.0,4.0,57,0.00,,,0.00,Wunderground v.1.15,2013-03-21 06:04:00,
2013-03-21 01:14:00,59.1,43.9,30.02,ESE,122,0.0,4.0,57,0.00,,,0.00,Wunderground v.1.15,2013-03-21 06:14:00,
2013-03-21 01:20:00,59.3,44.1,30.01,SE,132,1.0,4.0,57,0.00,,,0.00,Wunderground v.1.15,2013-03-21 06:20:00,
2013-03-21 01:30:00,59.5,44.7,30.02,SE,132,0.0,4.0,58,0.00,,,0.00,Wunderground v.1.15,2013-03-21 06:30:00,
2013-03-21 01:39:00,59.3,45.4,30.03,ENE,70,0.0,4.0,60,0.00,,,0.00,Wunderground v.1.15,2013-03-21 06:39:00,
2013-03-21 01:44:00,59.4,45.5,30.02,East,86,0.0,4.0,60,0.00,,,0.00,Wunderground v.1.15,2013-03-21 06:44:00,
2013-03-21 01:54:00,59.5,46.0,30.01,SE,131,0.0,4.0,61,0.00,,,0.00,Wunderground v.1.15,2013-03-21 06:54:00,
2013-03-21 02:00:00,59.5,46.0,30.01,SE,134,0.0,4.0,61,0.00,,,0.00,Wunderground v.1.15,2013-03-21 07:00:00,
2013-03-21 02:10:00,59.3,46.3,30.01,SE,134,0.0,4.0,62,0.00,,,0.00,Wunderground v.1.15,2013-03-21 07:10:00,
2013-03-21 02:19:00,59.0,46.4,30.01,SE,134,0.0,4.0,63,0.00,,,0.00,Wunderground v.1.15,2013-03-21 07:19:00,
2013-03-21 02:24:00,59.0,46.4,30.01,SE,134,0.0,4.0,63,0.00,,,0.00,Wunderground v.1.15,2013-03-21 07:24:00,
2013-03-21 02:35:00,59.0,46.8,30.00,SE,134,0.0,4.0,64,0.00,,,0.00,Wunderground v.1.15,2013-03-21 07:35:00,
2013-03-21 02:45:00,58.8,46.6,30.00,SE,134,0.0,4.0,64,0.00,,,0.00,Wunderground v.1.15,2013-03-21 07:45:00,
2013-03-21 02:54:00,58.2,46.5,30.00,SE,134,0.0,4.0,65,0.00,,,0.00,Wunderground v.1.15,2013-03-21 07:54:00,
2013-03-21 03:05:00,57.8,46.9,30.00,SE,134,0.0,4.0,67,0.00,,,0.00,Wunderground v.1.15,2013-03-21 08:05:00,
2013-03-21 03:14:00,57.9,47.0,30.00,SE,134,0.0,4.0,67,0.00,,,0.00,Wunderground v.1.15,2013-03-21 08:14:00,
2013-03-21 03:24:00,58.0,46.3,29.99,SE,134,0.0,4.0,65,0.00,,,0.00,Wunderground v.1.15,2013-03-21 08:24:00,
2013-03-21 03:30:00,58.1,46.4,29.99,SE,134,0.0,4.0,65,0.00,,,0.00,Wunderground v.1.15,2013-03-21 08:30:00,
2013-03-21 03:40:00,58.3,46.2,29.99,SE,134,0.0,4.0,64,0.00,,,0.00,Wunderground v.1.15,2013-03-21 08:40:00,
2013-03-21 03:49:00,58.3,46.2,29.98,SE,134,0.0,4.0,64,0.00,,,0.00,Wunderground v.1.15,2013-03-21 08:49:00,
2013-03-21 03:54:00,58.3,46.6,29.98,SE,134,0.0,4.0,65,0.00,,,0.00,Wunderground v.1.15,2013-03-21 08:54:00,
2013-03-21 03:59:00,58.4,46.3,29.98,SE,134,0.0,4.0,64,0.00,,,0.00,Wunderground v.1.15,2013-03-21 08:59:00,
2013-03-21 04:05:00,58.3,46.2,29.98,SE,134,0.0,4.0,64,0.00,,,0.00,Wunderground v.1.15,2013-03-21 09:05:00,
2013-03-21 04:15:00,57.8,46.1,29.98,SE,134,0.0,4.0,65,0.00,,,0.00,Wunderground v.1.15,2013-03-21 09:15:00,
2013-03-21 04:24:00,57.2,45.9,29.97,SE,134,0.0,4.0,66,0.00,,,0.00,Wunderground v.1.15,2013-03-21 09:24:00,
2013-03-21 04:35:00,56.4,45.6,29.96,SE,134,0.0,4.0,67,0.00,,,0.00,Wunderground v.1.15,2013-03-21 09:35:00,
2013-03-21 04:45:00,55.9,45.9,29.96,ESE,112,0.0,4.0,69,0.00,,,0.00,Wunderground v.1.15,2013-03-21 09:45:00,
2013-03-21 04:50:00,55.8,46.2,29.96,ESE,111,0.0,4.0,70,0.00,,,0.00,Wunderground v.1.15,2013-03-21 09:50:00,
2013-03-21 04:55:00,55.7,45.7,29.95,ESE,111,0.0,4.0,69,0.00,,,0.00,Wunderground v.1.15,2013-03-21 09:55:00,
2013-03-21 05:04:00,55.6,45.6,29.95,ESE,111,0.0,4.0,69,0.00,,,0.00,Wunderground v.1.15,2013-03-21 10:04:00,
2013-03-21 05:14:00,55.3,45.3,29.95,ESE,111,0.0,4.0,69,0.00,,,0.00,Wunderground v.1.15,2013-03-21 10:14:00,
2013-03-21 05:20:00,55.0,45.4,29.95,ESE,111,0.0,4.0,70,0.00,,,0.00,Wunderground v.1.15,2013-03-21 10:20:00,
2013-03-21 05:30:00,54.5,45.3,29.95,SW,221,0.0,4.0,71,0.00,,,0.00,Wunderground v.1.15,2013-03-21 10:30:00,
2013-03-21 05:39:00,54.1,45.3,29.95,SW,224,0.0,4.0,72,0.00,,,0.00,Wunderground v.1.15,2013-03-21 10:39:00,
2013-03-21 05:44:00,53.9,45.4,29.95,SW,224,0.0,4.0,73,0.00,,,0.00,Wunderground v.1.15,2013-03-21 10:44:00,
2013-03-21 05:50:00,53.8,45.7,29.94,SW,224,0.0,4.0,74,0.00,,,0.00,Wunderground v.1.15,2013-03-21 10:50:00,
2013-03-21 06:00:00,54.2,46.4,29.95,SW,217,0.0,4.0,75,0.00,,,0.00,Wunderground v.1.15,2013-03-21 11:00:00,
2013-03-21 06:09:00,54.6,46.8,29.94,SW,216,0.0,4.0,75,0.00,,,0.00,Wunderground v.1.15,2013-03-21 11:09:00,
2013-03-21 06:20:00,55.1,47.3,29.94,SW,219,0.0,4.0,75,0.00,,,0.00,Wunderground v.1.15,2013-03-21 11:20:00,
2013-03-21 06:30:00,55.4,48.3,29.94,West,280,0.0,4.0,77,0.00,,,0.00,Wunderground v.1.15,2013-03-21 11:30:00,
2013-03-21 06:40:00,55.9,48.8,29.94,SW,217,0.0,4.0,77,0.00,,,0.00,Wunderground v.1.15,2013-03-21 11:40:00,
2013-03-21 06:49:00,56.2,49.1,29.94,West,280,1.0,1.0,77,0.00,,,0.00,Wunderground v.1.15,2013-03-21 11:49:00,
2013-03-21 07:00:00,56.2,49.4,29.93,WNW,291,0.0,4.0,78,0.00,,,0.00,Wunderground v.1.15,2013-03-21 12:00:00,
2013-03-21 07:05:00,56.0,49.6,29.93,West,267,0.0,4.0,79,0.00,,,0.00,Wunderground v.1.15,2013-03-21 12:05:00,
2013-03-21 07:15:00,55.7,50.0,29.94,West,262,0.0,4.0,81,0.00,,,0.00,Wunderground v.1.15,2013-03-21 12:15:00,
2013-03-21 07:25:00,55.4,50.0,29.94,West,260,0.0,4.0,82,0.00,,,0.00,Wunderground v.1.15,2013-03-21 12:25:00,
2013-03-21 07:30:00,55.3,50.2,29.93,WSW,257,0.0,4.0,83,0.00,,,0.00,Wunderground v.1.15,2013-03-21 12:30:00,
2013-03-21 07:39:00,55.2,50.4,29.93,SSW,205,0.0,4.0,84,0.00,,,0.00,Wunderground v.1.15,2013-03-21 12:39:00,
2013-03-21 07:44:00,55.2,50.8,29.93,WSW,248,0.0,4.0,85,0.00,,,0.00,Wunderground v.1.15,2013-03-21 12:44:00,
2013-03-21 07:55:00,55.3,51.2,29.92,SSW,201,0.0,4.0,86,0.00,,,0.00,Wunderground v.1.15,2013-03-21 12:55:00,
2013-03-21 08:05:00,55.6,51.8,29.92,SSW,194,0.0,4.0,87,0.00,,,0.00,Wunderground v.1.15,2013-03-21 13:05:00,
2013-03-21 08:14:00,56.2,52.4,29.92,WSW,251,1.0,4.0,87,0.00,,,0.00,Wunderground v.1.15,2013-03-21 13:14:00,
2013-03-21 08:19:00,56.4,52.6,29.93,SSW,211,1.0,4.0,87,0.00,,,0.00,Wunderground v.1.15,2013-03-21 13:19:00,
2013-03-21 08:24:00,56.8,53.0,29.92,West,269,1.0,4.0,87,0.00,,,0.00,Wunderground v.1.15,2013-03-21 13:24:00,
2013-03-21 08:30:00,57.1,53.0,29.92,West,264,1.0,4.0,86,0.00,,,0.00,Wunderground v.1.15,2013-03-21 13:30:00,
2013-03-21 08:40:00,57.6,53.4,29.92,South,170,0.0,4.0,86,0.00,,,0.00,Wunderground v.1.15,2013-03-21 13:40:00,
2013-03-21 08:50:00,58.3,53.8,29.92,SE,127,0.0,4.0,85,0.00,,,0.00,Wunderground v.1.15,2013-03-21 13:50:00,
2013-03-21 08:59:00,59.1,54.3,29.92,West,266,1.0,1.0,84,0.00,,,0.00,Wunderground v.1.15,2013-03-21 13:59:00,
2013-03-21 09:05:00,59.3,54.5,29.92,SW,215,1.0,2.0,84,0.00,,,0.00,Wunderground v.1.15,2013-03-21 14:05:00,
2013-03-21 09:15:00,59.6,54.8,29.92,SSW,207,2.0,4.0,84,0.00,,,0.00,Wunderground v.1.15,2013-03-21 14:15:00,
2013-03-21 09:24:00,60.4,55.5,29.92,North,11,1.0,4.0,84,0.00,,,0.00,Wunderground v.1.15,2013-03-21 14:24:00,
2013-03-21 09:34:00,61.4,56.2,29.93,SW,214,1.0,4.0,83,0.00,,,0.00,Wunderground v.1.15,2013-03-21 14:34:00,
2013-03-21 09:40:00,61.9,56.7,29.92,ESE,103,1.0,4.0,83,0.00,,,0.00,Wunderground v.1.15,2013-03-21 14:40:00,
2013-03-21 09:50:00,62.4,56.8,29.92,South,169,2.0,2.0,82,0.00,,,0.00,Wunderground v.1.15,2013-03-21 14:50:00,
2013-03-21 09:59:00,62.7,56.4,29.92,SE,134,1.0,4.0,80,0.00,,,0.00,Wunderground v.1.15,2013-03-21 14:59:00,
2013-03-21 10:09:00,62.2,56.6,29.92,SSE,149,2.0,4.0,82,0.00,,,0.00,Wunderground v.1.15,2013-03-21 15:09:00,
2013-03-21 10:15:00,62.3,56.7,29.91,NNW,328,2.0,4.0,82,0.00,,,0.00,Wunderground v.1.15,2013-03-21 15:15:00,
2013-03-21 10:25:00,63.4,57.8,29.91,SSW,198,2.0,4.0,82,0.00,,,0.00,Wunderground v.1.15,2013-03-21 15:25:00,
2013-03-21 10:30:00,63.9,58.0,29.90,ENE,72,2.0,4.0,81,0.00,,,0.00,Wunderground v.1.15,2013-03-21 15:30:00,
2013-03-21 10:39:00,64.7,58.7,29.90,NW,308,2.0,5.0,81,0.00,,,0.00,Wunderground v.1.15,2013-03-21 15:39:00,
2013-03-21 10:50:00,65.6,58.2,29.90,ESE,103,3.0,3.0,77,0.00,,,0.00,Wunderground v.1.15,2013-03-21 15:50:00,
2013-03-21 10:59:00,66.7,58.5,29.90,SW,225,1.0,5.0,75,0.00,,,0.00,Wunderground v.1.15,2013-03-21 15:59:00,
2013-03-21 11:04:00,66.6,58.1,29.90,WNW,284,2.0,5.0,74,0.00,,,0.00,Wunderground v.1.15,2013-03-21 16:04:00,
2013-03-21 11:14:00,66.3,57.4,29.89,ESE,115,3.0,4.0,73,0.00,,,0.00,Wunderground v.1.15,2013-03-21 16:14:00,
2013-03-21 11:19:00,66.6,58.1,29.88,SSW,200,3.0,3.0,74,0.00,,,0.00,Wunderground v.1.15,2013-03-21 16:19:00,
2013-03-21 11:25:00,67.4,58.4,29.88,South,173,2.0,4.0,73,0.00,,,0.00,Wunderground v.1.15,2013-03-21 16:25:00,
2013-03-21 11:35:00,68.4,58.6,29.88,West,269,2.0,4.0,71,0.00,,,0.00,Wunderground v.1.15,2013-03-21 16:35:00,
2013-03-21 11:44:00,69.1,58.5,29.87,SSE,160,2.0,4.0,69,0.00,,,0.00,Wunderground v.1.15,2013-03-21 16:44:00,
2013-03-21 11:55:00,69.9,58.9,29.86,SE,134,2.0,4.0,68,0.00,,,0.00,Wunderground v.1.15,2013-03-21 16:55:00,
2013-03-21 12:05:00,70.6,58.3,29.86,ESE,105,2.0,4.0,65,0.00,,,0.00,Wunderground v.1.15,2013-03-21 17:05:00,
2013-03-21 12:15:00,70.8,57.6,29.86,SSE,167,3.0,4.0,63,0.00,,,0.00,Wunderground v.1.15,2013-03-21 17:15:00,
2013-03-21 12:20:00,70.7,57.5,29.85,East,98,3.0,3.0,63,0.00,,,0.00,Wunderground v.1.15,2013-03-21 17:20:00,
2013-03-21 12:29:00,71.0,57.8,29.84,SSW,195,3.0,5.0,63,0.00,,,0.00,Wunderground v.1.15,2013-03-21 17:29:00,
2013-03-21 12:34:00,71.2,58.0,29.84,East,90,3.0,5.0,63,0.00,,,0.00,Wunderground v.1.15,2013-03-21 17:34:00,
2013-03-21 12:45:00,72.5,57.8,29.83,South,174,3.0,4.0,60,0.00,,,0.00,Wunderground v.1.15,2013-03-21 17:45:00,
2013-03-21 12:55:00,73.3,58.1,29.83,SSE,153,3.0,4.0,59,0.00,,,0.00,Wunderground v.1.15,2013-03-21 17:55:00,
2013-03-21 13:04:00,73.3,57.6,29.82,SSW,204,4.0,4.0,58,0.00,,,0.00,Wunderground v.1.15,2013-03-21 18:04:00,
2013-03-21 13:14:00,74.4,58.7,29.81,ESE,108,2.0,7.0,58,0.00,,,0.00,Wunderground v.1.15,2013-03-21 18:14:00,
2013-03-21 13:25:00,74.4,58.2,29.81,ESE,108,3.0,4.0,57,0.00,,,0.00,Wunderground v.1.15,2013-03-21 18:25:00,
2013-03-21 13:35:00,74.6,58.8,29.80,NE,51,3.0,4.0,58,0.00,,,0.00,Wunderground v.1.15,2013-03-21 18:35:00,
2013-03-21 13:44:00,73.9,58.2,29.79,NW,304,4.0,9.0,58,0.00,,,0.00,Wunderground v.1.15,2013-03-21 18:44:00,
2013-03-21 13:55:00,73.8,59.0,29.78,SSE,158,3.0,6.0,60,0.00,,,0.00,Wunderground v.1.15,2013-03-21 18:55:00,
2013-03-21 14:05:00,73.9,59.1,29.78,WNW,297,2.0,3.0,60,0.00,,,0.00,Wunderground v.1.15,2013-03-21 19:05:00,
2013-03-21 14:14:00,74.0,59.7,29.77,WNW,293,2.0,4.0,61,0.00,,,0.00,Wunderground v.1.15,2013-03-21 19:14:00,
2013-03-21 14:24:00,74.1,59.3,29.77,SSW,198,3.0,4.0,60,0.00,,,0.00,Wunderground v.1.15,2013-03-21 19:24:00,
2013-03-21 14:30:00,73.7,59.4,29.76,SSW,203,3.0,3.0,61,0.00,,,0.00,Wunderground v.1.15,2013-03-21 19:30:00,
2013-03-21 14:40:00,73.4,59.6,29.75,SW,218,3.0,3.0,62,0.00,,,0.00,Wunderground v.1.15,2013-03-21 19:40:00,
2013-03-21 14:49:00,73.7,59.9,29.75,SE,141,3.0,3.0,62,0.00,,,0.00,Wunderground v.1.15,2013-03-21 19:49:00,
2013-03-21 14:54:00,74.0,59.2,29.75,SSE,165,3.0,4.0,60,0.00,,,0.00,Wunderground v.1.15,2013-03-21 19:54:00,
2013-03-21 15:00:00,74.1,59.8,29.74,SSE,165,3.0,3.0,61,0.00,,,0.00,Wunderground v.1.15,2013-03-21 20:00:00,
2013-03-21 15:10:00,74.3,59.5,29.74,SSW,209,3.0,4.0,60,0.00,,,0.00,Wunderground v.1.15,2013-03-21 20:10:00,
2013-03-21 15:19:00,74.2,59.9,29.73,SSE,165,3.0,3.0,61,0.00,,,0.00,Wunderground v.1.15,2013-03-21 20:19:00,
2013-03-21 15:29:00,73.8,59.5,29.73,SE,138,3.0,3.0,61,0.00,,,0.00,Wunderground v.1.15,2013-03-21 20:29:00,
2013-03-21 15:40:00,74.1,60.2,29.71,WNW,294,3.0,3.0,62,0.00,,,0.00,Wunderground v.1.15,2013-03-21 20:40:00,
2013-03-21 15:50:00,74.8,60.0,29.70,East,91,3.0,3.0,60,0.00,,,0.00,Wunderground v.1.15,2013-03-21 20:50:00,
2013-03-21 15:55:00,74.9,60.5,29.71,ESE,103,3.0,7.0,61,0.00,,,0.00,Wunderground v.1.15,2013-03-21 20:55:00,
2013-03-21 16:04:00,74.9,60.1,29.70,WNW,282,3.0,4.0,60,0.00,,,0.00,Wunderground v.1.15,2013-03-21 21:04:00,
2013-03-21 16:14:00,74.8,60.0,29.70,SSW,195,3.0,8.0,60,0.00,,,0.00,Wunderground v.1.15,2013-03-21 21:14:00,
2013-03-21 16:19:00,74.6,60.3,29.69,SSW,210,3.0,4.0,61,0.00,,,0.00,Wunderground v.1.15,2013-03-21 21:19:00,
2013-03-21 16:25:00,74.9,60.5,29.69,South,187,3.0,4.0,61,0.00,,,0.00,Wunderground v.1.15,2013-03-21 21:25:00,
2013-03-21 16:35:00,75.5,61.1,29.68,WSW,243,2.0,3.0,61,0.00,,,0.00,Wunderground v.1.15,2013-03-21 21:35:00,
2013-03-21 16:44:00,75.4,60.5,29.68,NW,309,3.0,4.0,60,0.00,,,0.00,Wunderground v.1.15,2013-03-21 21:44:00,
2013-03-21 16:49:00,75.4,60.5,29.67,WNW,288,3.0,3.0,60,0.00,,,0.00,Wunderground v.1.15,2013-03-21 21:49:00,
2013-03-21 16:55:00,75.4,60.5,29.67,South,188,2.0,4.0,60,0.00,,,0.00,Wunderground v.1.15,2013-03-21 21:55:00,
2013-03-21 17:05:00,75.3,60.5,29.67,SW,224,3.0,6.0,60,0.00,,,0.00,Wunderground v.1.15,2013-03-21 22:05:00,
2013-03-21 17:14:00,76.1,61.2,29.66,West,281,3.0,4.0,60,0.00,,,0.00,Wunderground v.1.15,2013-03-21 22:14:00,
2013-03-21 17:25:00,76.0,61.1,29.67,SSW,200,3.0,4.0,60,0.00,,,0.00,Wunderground v.1.15,2013-03-21 22:25:00,
2013-03-21 17:34:00,75.5,61.1,29.66,East,93,3.0,4.0,61,0.00,,,0.00,Wunderground v.1.15,2013-03-21 22:34:00,
2013-03-21 17:44:00,75.7,61.3,29.66,SSW,203,2.0,4.0,61,0.00,,,0.00,Wunderground v.1.15,2013-03-21 22:44:00,
2013-03-21 17:49:00,75.5,61.1,29.66,South,191,2.0,4.0,61,0.00,,,0.00,Wunderground v.1.15,2013-03-21 22:49:00,
2013-03-21 17:55:00,75.3,61.4,29.66,NNW,328,2.0,4.0,62,0.00,,,0.00,Wunderground v.1.15,2013-03-21 22:55:00,
2013-03-21 18:05:00,75.3,61.4,29.66,WSW,248,2.0,4.0,62,0.00,,,0.00,Wunderground v.1.15,2013-03-21 23:05:00,
2013-03-21 18:14:00,75.1,61.6,29.65,SW,222,2.0,4.0,63,0.00,,,0.00,Wunderground v.1.15,2013-03-21 23:14:00,
2013-03-21 18:19:00,75.1,61.6,29.66,SSW,203,2.0,4.0,63,0.00,,,0.00,Wunderground v.1.15,2013-03-21 23:19:00,
2013-03-21 18:29:00,75.0,61.5,29.65,SSW,201,2.0,4.0,63,0.00,,,0.00,Wunderground v.1.15,2013-03-21 23:29:00,
2013-03-21 18:35:00,75.0,61.5,29.65,WNW,295,2.0,4.0,63,0.00,,,0.00,Wunderground v.1.15,2013-03-21 23:35:00,
2013-03-21 18:45:00,74.9,61.9,29.65,SSW,203,2.0,4.0,64,0.00,,,0.00,Wunderground v.1.15,2013-03-21 23:45:00,
2013-03-21 18:55:00,74.4,61.4,29.64,East,98,2.0,4.0,64,0.00,,,0.00,Wunderground v.1.15,2013-03-21 23:55:00,
2013-03-21 19:00:00,74.3,61.3,29.65,WSW,257,2.0,4.0,64,0.00,,,0.00,Wunderground v.1.15,2013-03-22 00:00:00,
2013-03-21 19:09:00,74.1,61.6,29.65,SSW,204,2.0,2.0,65,0.00,,,0.00,Wunderground v.1.15,2013-03-22 00:09:00,
2013-03-21 19:19:00,74.0,61.5,29.65,SW,224,2.0,2.0,65,0.00,,,0.00,Wunderground v.1.15,2013-03-22 00:19:00,
2013-03-21 19:25:00,73.9,61.8,29.65,SSW,195,2.0,4.0,66,0.00,,,0.00,Wunderground v.1.15,2013-03-22 00:25:00,
2013-03-21 19:35:00,73.6,61.5,29.65,SSE,152,2.0,4.0,66,0.00,,,0.00,Wunderground v.1.15,2013-03-22 00:35:00,
2013-03-21 19:40:00,73.4,61.8,29.65,South,191,2.0,4.0,67,0.00,,,0.00,Wunderground v.1.15,2013-03-22 00:40:00,
2013-03-21 19:45:00,73.1,61.5,29.65,SW,219,1.0,4.0,67,0.00,,,0.00,Wunderground v.1.15,2013-03-22 00:45:00,
2013-03-21 19:54:00,72.7,61.1,29.65,SW,218,2.0,4.0,67,0.00,,,0.00,Wunderground v.1.15,2013-03-22 00:54:00,
2013-03-21 20:04:00,72.3,61.6,29.66,SE,134,1.0,4.0,69,0.00,,,0.00,Wunderground v.1.15,2013-03-22 01:04:00,
2013-03-21 20:10:00,72.0,61.3,29.66,East,98,1.0,4.0,69,0.00,,,0.00,Wunderground v.1.15,2013-03-22 01:10:00,
2013-03-21 20:20:00,71.7,61.4,29.67,NNW,329,1.0,1.0,70,0.00,,,0.00,Wunderground v.1.15,2013-03-22 01:20:00,
2013-03-21 20:25:00,71.5,61.2,29.67,SSW,195,1.0,4.0,70,0.00,,,0.00,Wunderground v.1.15,2013-03-22 01:25:00,
2013-03-21 20:34:00,71.3,61.4,29.67,ESE,118,1.0,4.0,71,0.00,,,0.00,Wunderground v.1.15,2013-03-22 01:34:00,
2013-03-21 20:45:00,71.0,61.5,29.68,South,191,1.0,4.0,72,0.00,,,0.00,Wunderground v.1.15,2013-03-22 01:45:00,
2013-03-21 20:55:00,70.7,61.6,29.68,East,100,1.0,4.0,73,0.00,,,0.00,Wunderground v.1.15,2013-03-22 01:55:00,
2013-03-21 21:05:00,70.5,61.8,29.68,South,186,1.0,4.0,74,0.00,,,0.00,Wunderground v.1.15,2013-03-22 02:05:00,
2013-03-21 21:14:00,70.1,61.4,29.68,SSW,193,1.0,4.0,74,0.00,,,0.00,Wunderground v.1.15,2013-03-22 02:14:00,
2013-03-21 21:20:00,69.9,61.6,29.68,East,89,1.0,4.0,75,0.00,,,0.00,Wunderground v.1.15,2013-03-22 02:20:00,
2013-03-21 21:29:00,69.5,61.6,29.68,ESE,120,1.0,1.0,76,0.00,,,0.00,Wunderground v.1.15,2013-03-22 02:29:00,
2013-03-21 21:35:00,69.2,61.3,29.68,East,100,1.0,4.0,76,0.00,,,0.00,Wunderground v.1.15,2013-03-22 02:35:00,
2013-03-21 21:45:00,68.8,61.3,29.68,ENE,76,1.0,4.0,77,0.00,,,0.00,Wunderground v.1.15,2013-03-22 02:45:00,
2013-03-21 21:55:00,68.4,61.3,29.68,SE,126,1.0,4.0,78,0.00,,,0.00,Wunderground v.1.15,2013-03-22 02:55:00,
2013-03-21 22:04:00,68.1,61.0,29.69,East,91,1.0,4.0,78,0.00,,,0.00,Wunderground v.1.15,2013-03-22 03:04:00,
2013-03-21 22:15:00,67.8,61.0,29.69,SSE,150,1.0,4.0,79,0.00,,,0.00,Wunderground v.1.15,2013-03-22 03:15:00,
2013-03-21 22:20:00,67.6,61.2,29.69,SSE,162,1.0,4.0,80,0.00,,,0.00,Wunderground v.1.15,2013-03-22 03:20:00,
2013-03-21 22:25:00,67.4,61.0,29.69,SE,131,1.0,4.0,80,0.00,,,0.00,Wunderground v.1.15,2013-03-22 03:25:00,
2013-03-21 22:35:00,67.0,61.0,29.70,North,6,2.0,4.0,81,0.00,,,0.00,Wunderground v.1.15,2013-03-22 03:35:00,
2013-03-21 22:44:00,66.5,61.2,29.69,ESE,104,1.0,4.0,83,0.00,,,0.00,Wunderground v.1.15,2013-03-22 03:44:00,
2013-03-21 22:49:00,66.3,61.0,29.69,SE,141,1.0,4.0,83,0.00,,,0.00,Wunderground v.1.15,2013-03-22 03:49:00,
2013-03-21 22:54:00,66.1,61.1,29.69,West,268,1.0,4.0,84,0.00,,,0.00,Wunderground v.1.15,2013-03-22 03:54:00,
2013-03-21 22:59:00,65.9,61.3,29.69,SSW,193,1.0,1.0,85,0.00,,,0.00,Wunderground v.1.15,2013-03-22 03:59:00,
2013-03-21 23:04:00,65.8,61.2,29.69,SE,125,1.0,4.0,85,0.00,,,0.00,Wunderground v.1.15,2013-03-22 04:04:00,
2013-03-21 23:14:00,65.6,61.3,29.69,SSW,195,1.0,4.0,86,0.00,,,0.00,Wunderground v.1.15,2013-03-22 04:14:00,
2013-03-21 23:19:00,65.6,61.6,29.69,SW,217,1.0,1.0,87,0.00,,,0.00,Wunderground v.1.15,2013-03-22 04:19:00,
2013-03-21 23:30:00,65.7,61.7,29.69,SE,132,1.0,1.0,87,0.00,,,0.00,Wunderground v.1.15,2013-03-22 04:30:00,
2013-03-21 23:35:00,65.8,61.8,29.69,SE,141,1.0,4.0,87,0.00,,,0.00,Wunderground v.1.15,2013-03-22 04:35:00,
2013-03-21 23:45:00,65.8,61.8,29.69,SSW,212,1.0,4.0,87,0.00,,,0.00,Wunderground v.1.15,2013-03-22 04:45:00,
2013-03-21 23:50:00,65.8,61.8,29.69,SW,224,0.0,4.0,87,0.00,,,0.00,Wunderground v.1.15,2013-03-22 04:50:00,
2013-03-21 23:59:00,65.8,62.1,29.69,SSE,148,1.0,4.0,88,0.00,,,0.00,Wunderground v.1.15,2013-03-22 04:59:00,